カタログに戻る

BREEZE-M DEB

TANK

運用中HEO
NORAD 37828·DEBRIS·🇷🇺 Russia

打ち上げ Sep 29, 2011 から Baikonur Cosmodrome

Loading…

次のパス (今後24時間)

TLE

最新Source: Space-Track

元期: Sep 13, 2026, 12:27 UTC

1 37828U 11054C   26256.51920723  .00003664  00000-0  67443-3 0  9995
2 37828  49.4187 263.9269 5485145 221.8915  79.7538  4.83156114252304

AllMySatでBREEZE-M DEBをリアルタイム追跡

Download on the App Store